Cedar Island, NC

3:16 AM EDT on July 26, 2016 (GMT -0400)
Piney Island

Weather History for KNBT - July, 2014

Change the Weather History Date:

Thursday, July 3, 2014

  Actual Average (KMRH) Record (KMRH)
Temperature  
Mean Temperature 82 °F -  
Max Temperature 88 °F 85 °F 90 °F (1954)
Min Temperature 75 °F 70 °F 61 °F (1988)
Cooling Degree Days 16    
Growing Degree Days 32 (Base 50)    
Moisture  
Dew Point 77 °F    
Average Humidity 85    
Maximum Humidity 100    
Minimum Humidity 69    
Precipitation  
Precipitation 0.00 in - - ()
Sea Level Pressure  
Sea Level Pressure 29.86 in    
Wind  
Wind Speed 15 mph (SE)    
Max Wind Speed 45 mph    
Max Gust Speed 70 mph    
Visibility 6 miles    
Events Rain    
Averages and records for this station are not official NWS values.
T = Trace of Precipitation, MM = Missing Value Source: NWS Daily Summary

Daily Weather History Graph

Daily Weather History Graph

Search for Another Location

Airport or City:

Trip Planner

Search our weather history database for the weather conditions in past years. The results will help you decide how hot, cold, wet, or windy it might be!

Date:

Astronomy

Jul. 03, 2014 Rise Set
Actual Time 5:56 AM EDT 8:23 PM EDT
Civil Twilight 5:26 AM EDT 8:53 PM EDT
Nautical Twilight 4:50 AM EDT 9:29 PM EDT
Astronomical Twilight 4:10 AM EDT 10:09 PM EDT
Moon 11:39 AM EDT (7/3) No Moon Set
Length of Visible Light 15h 26m
Length of Day
14h 27m
Waxing Crescent, 33% of the Moon is Illuminated
Jul 3
Waxing Crescent
Jul 5
First Quarter
Jul 12
Full
Jul 18
Last Quarter
Jul 26
New

Hourly Weather History & Observations

Time (EDT) Temp. Heat Index Dew Point Humidity Pressure Visibility Wind Dir Wind Speed Gust Speed Precip Events Conditions
12:56 AM 81.0 °F 88.6 °F 78.1 °F 91% 30.04 in 7.0 mi South 6.9 mph - N/A   Clear
1:56 AM 80.1 °F 85.8 °F 77.0 °F 90% 30.03 in 7.0 mi South 4.6 mph - N/A   Scattered Clouds
2:06 AM 80.1 °F 85.8 °F 77.0 °F 90% 30.01 in 7.0 mi South 4.6 mph - N/A   Mostly Cloudy
2:35 AM 81.0 °F 88.6 °F 78.1 °F 91% 30.01 in 7.0 mi South 5.8 mph - N/A   Scattered Clouds
2:56 AM 80.1 °F 85.8 °F 77.0 °F 90% 30.01 in 7.0 mi South 3.5 mph - N/A   Clear
3:56 AM 80.1 °F 85.8 °F 77.0 °F 90% 30.01 in 7.0 mi South 4.6 mph - N/A   Clear
4:56 AM 81.0 °F 87.9 °F 77.0 °F 88% 30.01 in 7.0 mi South 4.6 mph - N/A   Clear
5:56 AM 81.0 °F 87.9 °F 77.0 °F 88% 30.02 in 6.0 mi South 6.9 mph - N/A   Clear
6:56 AM 82.0 °F 91.0 °F 78.1 °F 88% 30.04 in 6.0 mi SSE 8.1 mph - N/A   Clear
7:56 AM 84.0 °F 94.8 °F 78.1 °F 82% 30.04 in 7.0 mi SSE 15.0 mph 21.9 mph N/A   Clear
8:56 AM 84.9 °F 95.3 °F 77.0 °F 77% 30.03 in 7.0 mi SSE 16.1 mph 21.9 mph N/A   Scattered Clouds
9:56 AM 87.1 °F 98.8 °F 77.0 °F 72% 30.03 in 8.0 mi SE 16.1 mph 21.9 mph N/A   Scattered Clouds
10:06 AM 87.1 °F 97.3 °F 75.9 °F 69% 30.01 in 8.0 mi SSE 16.1 mph 23.0 mph N/A   Mostly Cloudy
10:18 AM 87.1 °F 98.8 °F 77.0 °F 72% 30.01 in 8.0 mi SSE 10.4 mph 21.9 mph N/A   Mostly Cloudy
10:37 AM 87.1 °F 98.8 °F 77.0 °F 72% 30.02 in 8.0 mi SSE 15.0 mph 23.0 mph N/A   Mostly Cloudy
10:56 AM 87.1 °F 98.8 °F 77.0 °F 72% 30.04 in 8.0 mi SSE 16.1 mph 26.5 mph N/A   Mostly Cloudy
11:40 AM 87.1 °F 98.8 °F 77.0 °F 72% 30.02 in 8.0 mi SSE 13.8 mph 24.2 mph N/A   Mostly Cloudy
11:56 AM 87.1 °F 98.8 °F 77.0 °F 72% 30.03 in 9.0 mi SSE 18.4 mph 26.5 mph N/A   Mostly Cloudy
12:27 PM 87.1 °F 98.8 °F 77.0 °F 72% 30.00 in 9.0 mi SE 16.1 mph - N/A   Mostly Cloudy
12:46 PM 88.0 °F 101.3 °F 78.1 °F 72% 30.00 in 9.0 mi SE 16.1 mph 26.5 mph N/A   Mostly Cloudy
12:56 PM 87.1 °F 99.8 °F 78.1 °F 74% 30.01 in 8.0 mi SE 19.6 mph 25.3 mph N/A   Mostly Cloudy
1:56 PM 87.1 °F 98.8 °F 77.0 °F 72% 29.99 in 9.0 mi SE 20.7 mph 29.9 mph N/A   Mostly Cloudy
2:27 PM 87.1 °F 98.8 °F 77.0 °F 72% 29.96 in 9.0 mi SE 17.3 mph 29.9 mph N/A   Mostly Cloudy
2:36 PM 86.0 °F 96.9 °F 77.0 °F 74% 29.96 in 8.0 mi SE 23.0 mph 29.9 mph N/A   Mostly Cloudy
2:56 PM 87.1 °F 99.8 °F 78.1 °F 74% 29.96 in 8.0 mi SE 21.9 mph 32.2 mph N/A   Mostly Cloudy
3:56 PM 86.0 °F 96.9 °F 77.0 °F 74% 29.93 in 8.0 mi SE 23.0 mph 32.2 mph N/A   Mostly Cloudy
4:25 PM 86.0 °F 96.9 °F 77.0 °F 74% 29.90 in 8.0 mi ESE 24.2 mph 31.1 mph N/A   Mostly Cloudy
4:56 PM 84.9 °F 95.3 °F 77.0 °F 77% 29.90 in 7.0 mi ESE 23.0 mph 33.4 mph N/A   Mostly Cloudy
5:56 PM 82.9 °F 92.8 °F 78.1 °F 85% 29.86 in 6.0 mi SE 27.6 mph 35.7 mph N/A   Haze
6:03 PM 81.0 °F 87.3 °F 75.9 °F 85% 29.83 in 6.0 mi SE 21.9 mph 38.0 mph N/A Rain Light Rain
6:26 PM 81.0 °F 88.6 °F 78.1 °F 91% 29.81 in 2.5 mi ESE 19.6 mph 29.9 mph N/A Rain Light Rain
6:33 PM 81.0 °F 89.2 °F 79.0 °F 94% 29.81 in 4.0 mi ESE 21.9 mph 31.1 mph N/A Rain Light Rain
6:56 PM 82.0 °F 91.0 °F 78.1 °F 88% 29.82 in 5.0 mi ESE 21.9 mph 34.5 mph N/A Rain Light Rain
7:06 PM 82.0 °F 91.0 °F 78.1 °F 88% 29.81 in 6.0 mi ESE 24.2 mph 33.4 mph N/A Rain Light Rain
7:13 PM 81.0 °F 88.6 °F 78.1 °F 91% 29.80 in 6.0 mi SE 20.7 mph 32.2 mph N/A Rain Light Rain
7:23 PM 75.9 °F - 73.9 °F 94% 29.82 in 7.0 mi South 16.1 mph 31.1 mph N/A Rain Light Rain
7:31 PM 75.0 °F - 73.9 °F 96% 29.79 in 1.5 mi South 10.4 mph 23.0 mph N/A Rain Heavy Rain
7:42 PM 75.9 °F - 75.0 °F 97% 29.81 in 2.0 mi SSE 10.4 mph 17.3 mph N/A Rain Rain
7:53 PM 75.2 °F - 75.2 °F 100% 29.77 in 1.8 mi SE 21.9 mph 38.0 mph N/A Rain Rain
7:56 PM 77.0 °F - 77.0 °F 100% 29.78 in 2.5 mi ESE 23.0 mph 38.0 mph N/A Rain Light Rain
8:00 PM 77.0 °F - 77.0 °F 100% 29.76 in 6.0 mi ESE 21.9 mph 31.1 mph N/A Rain Light Rain
8:38 PM 79.0 °F - 78.1 °F 97% 29.71 in 2.5 mi ESE 27.6 mph 38.0 mph N/A   Overcast
8:46 PM 79.0 °F - 77.0 °F 94% 29.70 in 6.0 mi ESE 25.3 mph 36.8 mph N/A   Mostly Cloudy
8:56 PM 79.0 °F - 78.1 °F 97% 29.70 in 6.0 mi ESE 26.5 mph 39.1 mph N/A Rain Light Rain
9:23 PM 78.1 °F - 77.0 °F 96% 29.66 in 1.8 mi SE 32.2 mph 50.6 mph N/A Rain Heavy Rain
9:41 PM 78.1 °F - 78.1 °F 100% 29.63 in 1.2 mi ESE 40.3 mph 59.8 mph N/A Rain Rain
9:52 PM 78.8 °F - - N/A% 29.61 in 2.5 mi SE 32.2 mph 47.2 mph N/A Rain Rain
9:56 PM 78.1 °F - - N/A% 29.61 in 3.0 mi ESE 33.4 mph 47.2 mph N/A Rain Rain
10:14 PM 77.0 °F - - N/A% 29.55 in 6.0 mi ESE 34.5 mph 51.8 mph N/A Rain Light Rain
10:56 PM 75.9 °F - - N/A% 29.41 in 4.0 mi ESE 41.4 mph 66.7 mph N/A Rain Light Rain
11:56 PM 78.1 °F - - N/A% 28.95 in 1.2 mi East 44.9 mph 70.2 mph N/A Rain Rain